Time,TemperatureF,DewpointF,PressureIn,WindDirection,WindDirectionDegrees,WindSpeedMPH,WindSpeedGustMPH,Humidity,HourlyPrecipIn,Conditions,Clouds,dailyrainin,SoftwareType,DateUTC
2014-01-01 00:00:00,33.3,6.6,30.22,ESE,115,3.1,6.3,32,0.00,,SKC,0.00,VWS V14.01,2014-01-01 08:00:00,
2014-01-01 00:05:00,33.6,6.9,30.22,SE,126,3.6,4.0,32,0.00,,SKC,0.00,VWS V14.01,2014-01-01 08:05:00,
2014-01-01 00:10:00,33.3,6.6,30.22,SE,138,2.7,2.7,32,0.00,,SKC,0.00,VWS V14.01,2014-01-01 08:10:00,
2014-01-01 00:15:00,33.1,6.4,30.22,NE,42,3.6,4.0,32,0.00,,SKC,0.00,VWS V14.01,2014-01-01 08:15:00,
2014-01-01 00:20:00,32.5,6.0,30.22,ESE,103,2.7,2.7,32,0.00,,SKC,0.00,VWS V14.01,2014-01-01 08:20:00,
2014-01-01 00:25:00,32.4,5.8,30.22,ESE,109,3.6,3.6,32,0.00,,SKC,0.00,VWS V14.01,2014-01-01 08:25:00,
2014-01-01 00:30:00,32.4,5.8,30.22,ESE,120,6.3,8.1,32,0.00,,SKC,0.00,VWS V14.01,2014-01-01 08:30:00,
2014-01-01 00:35:00,32.5,6.0,30.22,ESE,117,3.6,5.4,32,0.00,,SKC,0.00,VWS V14.01,2014-01-01 08:35:00,
2014-01-01 00:40:00,32.4,5.8,30.22,ESE,120,3.1,3.1,32,0.00,,SKC,0.00,VWS V14.01,2014-01-01 08:40:00,
2014-01-01 00:45:00,31.6,5.8,30.22,SE,140,5.4,5.4,33,0.00,,SKC,0.00,VWS V14.01,2014-01-01 08:45:00,
2014-01-01 00:50:00,31.6,5.8,30.22,ESE,122,0.0,0.0,33,0.00,,SKC,0.00,VWS V14.01,2014-01-01 08:50:00,
2014-01-01 00:55:00,30.9,5.2,30.22,SW,221,0.0,0.0,33,0.00,,SKC,0.00,VWS V14.01,2014-01-01 08:55:00,
2014-01-01 01:00:00,29.3,5.1,30.22,South,189,0.0,0.0,35,0.00,,SKC,0.00,VWS V14.01,2014-01-01 09:00:00,
2014-01-01 01:05:00,27.7,7.1,30.22,South,190,0.0,0.0,41,0.00,,SKC,0.00,VWS V14.01,2014-01-01 09:05:00,
2014-01-01 01:10:00,26.4,6.4,30.22,SSW,209,0.0,0.0,42,0.00,,SKC,0.00,VWS V14.01,2014-01-01 09:10:00,
2014-01-01 01:15:00,25.9,7.5,30.22,SSW,209,0.0,0.0,45,0.00,,SKC,0.00,VWS V14.01,2014-01-01 09:15:00,
2014-01-01 01:20:00,25.7,7.8,30.22,SW,216,0.0,0.0,46,0.00,,SKC,0.00,VWS V14.01,2014-01-01 09:20:00,
2014-01-01 01:25:00,25.7,8.7,30.22,SW,216,0.0,0.0,48,0.00,,SKC,0.00,VWS V14.01,2014-01-01 09:25:00,
2014-01-01 01:30:00,25.7,9.2,30.22,SW,216,0.0,0.0,49,0.00,,SKC,0.00,VWS V14.01,2014-01-01 09:30:00,
2014-01-01 01:35:00,26.1,9.5,30.22,SW,216,0.0,0.0,49,0.00,,SKC,0.00,VWS V14.01,2014-01-01 09:35:00,
2014-01-01 01:40:00,25.9,9.4,30.22,SW,216,0.0,0.0,49,0.00,,SKC,0.00,VWS V14.01,2014-01-01 09:40:00,
2014-01-01 01:45:00,25.7,9.2,30.22,SW,216,0.0,0.0,49,0.00,,SKC,0.00,VWS V14.01,2014-01-01 09:45:00,
2014-01-01 01:50:00,25.5,9.0,30.22,SW,216,0.0,0.0,49,0.00,,SKC,0.00,VWS V14.01,2014-01-01 09:50:00,
2014-01-01 01:55:00,25.3,8.4,30.22,SW,216,0.0,0.0,48,0.00,,SKC,0.00,VWS V14.01,2014-01-01 09:55:00,
2014-01-01 02:00:00,24.4,7.6,30.22,SE,139,0.0,0.0,48,0.00,,SKC,0.00,VWS V14.01,2014-01-01 10:00:00,
2014-01-01 02:05:00,24.1,7.7,30.22,SE,138,0.0,0.0,49,0.00,,SKC,0.00,VWS V14.01,2014-01-01 10:05:00,
2014-01-01 02:10:00,24.1,7.7,30.22,ESE,119,0.0,0.0,49,0.00,,SKC,0.00,VWS V14.01,2014-01-01 10:10:00,
2014-01-01 02:15:00,23.9,8.0,30.22,ESE,119,0.0,0.0,50,0.00,,SKC,0.00,VWS V14.01,2014-01-01 10:15:00,
2014-01-01 02:20:00,23.7,9.1,30.22,ESE,117,0.0,0.0,53,0.00,,SKC,0.00,VWS V14.01,2014-01-01 10:20:00,
2014-01-01 02:25:00,24.3,9.2,30.22,ESE,117,0.0,0.0,52,0.00,,SKC,0.00,VWS V14.01,2014-01-01 10:25:00,
2014-01-01 02:30:00,24.3,9.2,30.25,ESE,117,0.0,0.0,52,0.00,,SKC,0.00,VWS V14.01,2014-01-01 10:30:00,
2014-01-01 02:35:00,24.1,9.0,30.25,ESE,116,0.0,0.0,52,0.00,,SKC,0.00,VWS V14.01,2014-01-01 10:35:00,
2014-01-01 02:40:00,24.3,9.2,30.25,ESE,116,0.0,0.0,52,0.00,,SKC,0.00,VWS V14.01,2014-01-01 10:40:00,
2014-01-01 02:45:00,24.3,8.8,30.25,ESE,116,0.0,0.0,51,0.00,,SKC,0.00,VWS V14.01,2014-01-01 10:45:00,
2014-01-01 02:50:00,24.4,8.9,30.25,ESE,115,0.0,0.0,51,0.00,,SKC,0.00,VWS V14.01,2014-01-01 10:50:00,
2014-01-01 02:55:00,25.2,8.2,30.25,East,101,0.0,0.0,48,0.00,,SKC,0.00,VWS V14.01,2014-01-01 10:55:00,
2014-01-01 03:00:00,25.5,8.1,30.25,ESE,120,3.1,3.1,47,0.00,,SKC,0.00,VWS V14.01,2014-01-01 11:00:00,
2014-01-01 03:05:00,26.1,8.1,30.25,SE,124,3.6,3.6,46,0.00,,SKC,0.00,VWS V14.01,2014-01-01 11:05:00,
2014-01-01 03:10:00,27.0,8.0,30.25,ESE,115,3.6,3.6,44,0.00,,SKC,0.00,VWS V14.01,2014-01-01 11:10:00,
2014-01-01 03:15:00,28.6,7.9,30.22,ESE,112,2.7,2.7,41,0.00,,SKC,0.00,VWS V14.01,2014-01-01 11:15:00,
2014-01-01 03:20:00,28.9,8.2,30.22,ESE,112,0.0,0.0,41,0.00,,SKC,0.00,VWS V14.01,2014-01-01 11:20:00,
2014-01-01 03:25:00,28.6,7.3,30.22,ESE,112,0.0,0.0,40,0.00,,SKC,0.00,VWS V14.01,2014-01-01 11:25:00,
2014-01-01 03:30:00,27.9,7.2,30.22,ESE,112,0.0,0.0,41,0.00,,SKC,0.00,VWS V14.01,2014-01-01 11:30:00,
2014-01-01 03:35:00,27.1,6.6,30.22,ESE,112,0.0,0.0,41,0.00,,SKC,0.00,VWS V14.01,2014-01-01 11:35:00,
2014-01-01 03:40:00,26.1,5.6,30.22,ESE,112,0.0,0.0,41,0.00,,SKC,0.00,VWS V14.01,2014-01-01 11:40:00,
2014-01-01 03:45:00,25.2,5.3,30.22,ESE,112,0.0,0.0,42,0.00,,SKC,0.00,VWS V14.01,2014-01-01 11:45:00,
2014-01-01 03:50:00,24.4,5.2,30.22,ESE,112,0.0,0.0,43,0.00,,SKC,0.00,VWS V14.01,2014-01-01 11:50:00,
2014-01-01 03:55:00,23.9,5.2,30.22,ESE,112,0.0,0.0,44,0.00,,SKC,0.00,VWS V14.01,2014-01-01 11:55:00,
2014-01-01 04:00:00,23.5,5.8,30.22,ESE,112,0.0,0.0,46,0.00,,SKC,0.00,VWS V14.01,2014-01-01 12:00:00,
2014-01-01 04:05:00,23.4,6.6,30.22,ESE,112,0.0,0.0,48,0.00,,SKC,0.00,VWS V14.01,2014-01-01 12:05:00,
2014-01-01 04:10:00,23.0,6.7,30.22,ESE,112,0.0,0.0,49,0.00,,SKC,0.00,VWS V14.01,2014-01-01 12:10:00,
2014-01-01 04:15:00,22.6,6.4,30.22,ESE,112,0.0,0.0,49,0.00,,SKC,0.00,VWS V14.01,2014-01-01 12:15:00,
2014-01-01 04:20:00,22.6,7.2,30.22,ESE,112,0.0,0.0,51,0.00,,SKC,0.00,VWS V14.01,2014-01-01 12:20:00,
2014-01-01 04:25:00,22.8,8.7,30.22,ESE,112,0.0,0.0,54,0.00,,SKC,0.00,VWS V14.01,2014-01-01 12:25:00,
2014-01-01 04:30:00,22.8,8.7,30.22,ESE,112,0.0,0.0,54,0.00,,SKC,0.00,VWS V14.01,2014-01-01 12:30:00,
2014-01-01 04:35:00,22.6,8.1,30.22,ESE,112,0.0,0.0,53,0.00,,SKC,0.00,VWS V14.01,2014-01-01 12:35:00,
2014-01-01 04:40:00,22.5,7.9,30.22,ESE,112,0.0,0.0,53,0.00,,SKC,0.00,VWS V14.01,2014-01-01 12:40:00,
2014-01-01 04:45:00,21.9,7.8,30.22,ESE,112,0.0,0.0,54,0.00,,SKC,0.00,VWS V14.01,2014-01-01 12:45:00,
2014-01-01 04:50:00,22.1,9.2,30.22,ESE,112,0.0,0.0,57,0.00,,SKC,0.00,VWS V14.01,2014-01-01 12:50:00,
2014-01-01 04:55:00,22.5,9.1,30.22,ESE,112,0.0,0.0,56,0.00,,SKC,0.00,VWS V14.01,2014-01-01 12:55:00,
2014-01-01 05:00:00,22.8,8.7,30.22,NE,46,0.0,0.0,54,0.00,,SKC,0.00,VWS V14.01,2014-01-01 13:00:00,
2014-01-01 05:05:00,22.6,8.5,30.22,NE,47,0.0,0.0,54,0.00,,SKC,0.00,VWS V14.01,2014-01-01 13:05:00,
2014-01-01 05:10:00,22.5,8.3,30.22,NE,47,0.0,0.0,54,0.00,,SKC,0.00,VWS V14.01,2014-01-01 13:10:00,
2014-01-01 05:15:00,22.5,8.3,30.22,NE,47,0.0,0.0,54,0.00,,SKC,0.00,VWS V14.01,2014-01-01 13:15:00,
2014-01-01 05:20:00,22.1,7.6,30.22,NE,47,0.0,0.0,53,0.00,,SKC,0.00,VWS V14.01,2014-01-01 13:20:00,
2014-01-01 05:25:00,21.4,6.9,30.22,NE,47,0.0,0.0,53,0.00,,SKC,0.00,VWS V14.01,2014-01-01 13:25:00,
2014-01-01 05:30:00,21.0,7.0,30.22,NE,47,0.0,0.0,54,0.00,,SKC,0.00,VWS V14.01,2014-01-01 13:30:00,
2014-01-01 05:35:00,20.8,6.8,30.22,NE,47,0.0,0.0,54,0.00,,SKC,0.00,VWS V14.01,2014-01-01 13:35:00,
2014-01-01 05:40:00,20.8,7.2,30.22,NE,47,0.0,0.0,55,0.00,,SKC,0.00,VWS V14.01,2014-01-01 13:40:00,
2014-01-01 05:45:00,21.0,8.9,30.22,NE,47,0.0,0.0,59,0.00,,SKC,0.00,VWS V14.01,2014-01-01 13:45:00,
2014-01-01 05:50:00,20.8,8.0,30.22,NE,47,0.0,0.0,57,0.00,,SKC,0.00,VWS V14.01,2014-01-01 13:50:00,
2014-01-01 05:55:00,20.5,7.7,30.22,NE,47,0.0,0.0,57,0.00,,SKC,0.00,VWS V14.01,2014-01-01 13:55:00,
2014-01-01 06:00:00,20.5,7.7,30.22,NE,47,0.0,0.0,57,0.00,,SKC,0.00,VWS V14.01,2014-01-01 14:00:00,
2014-01-01 06:05:00,20.3,7.9,30.22,NE,47,0.0,0.0,58,0.00,,SKC,0.00,VWS V14.01,2014-01-01 14:05:00,
2014-01-01 06:10:00,20.1,7.3,30.22,NE,47,0.0,0.0,57,0.00,,SKC,0.00,VWS V14.01,2014-01-01 14:10:00,
2014-01-01 06:15:00,19.9,7.6,30.22,NE,47,0.0,0.0,58,0.00,,SKC,0.00,VWS V14.01,2014-01-01 14:15:00,
2014-01-01 06:20:00,20.1,8.5,30.22,NE,56,0.0,0.0,60,0.00,,SKC,0.00,VWS V14.01,2014-01-01 14:20:00,
2014-01-01 06:25:00,19.9,7.9,30.22,NE,56,0.0,0.0,59,0.00,,SKC,0.00,VWS V14.01,2014-01-01 14:25:00,
2014-01-01 06:30:00,19.6,7.6,30.22,NE,56,0.0,0.0,59,0.00,,SKC,0.00,VWS V14.01,2014-01-01 14:30:00,
2014-01-01 06:35:00,19.8,9.2,30.22,NE,56,0.0,0.0,63,0.00,,SKC,0.00,VWS V14.01,2014-01-01 14:35:00,
2014-01-01 06:40:00,19.8,9.6,30.22,NE,56,0.0,0.0,64,0.00,,SKC,0.00,VWS V14.01,2014-01-01 14:40:00,
2014-01-01 06:45:00,19.6,8.7,30.22,NE,56,0.0,0.0,62,0.00,,SKC,0.00,VWS V14.01,2014-01-01 14:45:00,
2014-01-01 06:50:00,19.6,9.1,30.22,NE,56,0.0,0.0,63,0.00,,SKC,0.00,VWS V14.01,2014-01-01 14:50:00,
2014-01-01 06:55:00,19.6,9.1,30.22,NE,56,0.0,0.0,63,0.00,,SKC,0.00,VWS V14.01,2014-01-01 14:55:00,
2014-01-01 07:00:00,19.4,9.2,30.22,NE,56,0.0,0.0,64,0.00,,SKC,0.00,VWS V14.01,2014-01-01 15:00:00,
2014-01-01 07:05:00,19.2,8.7,30.22,NE,56,0.0,0.0,63,0.00,,SKC,0.00,VWS V14.01,2014-01-01 15:05:00,
2014-01-01 07:10:00,19.0,8.5,30.22,NE,56,0.0,0.0,63,0.00,,SKC,0.00,VWS V14.01,2014-01-01 15:10:00,
2014-01-01 07:15:00,19.0,8.9,30.22,NE,56,0.0,0.0,64,0.00,,SKC,0.00,VWS V14.01,2014-01-01 15:15:00,
2014-01-01 07:19:00,18.9,8.7,30.22,NE,56,0.0,0.0,64,0.00,,SKC,0.00,VWS V14.01,2014-01-01 15:19:00,
2014-01-01 07:24:00,18.7,8.5,30.22,NE,56,0.0,0.0,64,0.00,,SKC,0.00,VWS V14.01,2014-01-01 15:24:00,
2014-01-01 07:29:00,19.0,8.9,30.22,NE,56,0.0,0.0,64,0.00,,SKC,0.00,VWS V14.01,2014-01-01 15:29:00,
2014-01-01 07:34:00,19.4,9.9,30.22,NE,56,0.0,0.0,66,0.00,,SKC,0.00,VWS V14.01,2014-01-01 15:34:00,
2014-01-01 07:39:00,19.8,10.6,30.22,NE,56,0.0,0.0,67,0.00,,SKC,0.00,VWS V14.01,2014-01-01 15:39:00,
2014-01-01 07:44:00,20.3,11.4,30.22,NE,56,0.0,0.0,68,0.00,,SKC,0.00,VWS V14.01,2014-01-01 15:44:00,
2014-01-01 07:49:00,21.2,12.6,30.22,NE,56,0.0,0.0,69,0.00,,SKC,0.00,VWS V14.01,2014-01-01 15:49:00,
2014-01-01 07:54:00,22.6,14.7,30.22,NE,56,0.0,0.0,71,0.00,,SKC,0.00,VWS V14.01,2014-01-01 15:54:00,
2014-01-01 07:59:00,23.9,13.1,30.22,NE,56,0.0,0.0,63,0.00,,SKC,0.00,VWS V14.01,2014-01-01 15:59:00,
2014-01-01 08:04:00,25.3,14.2,30.22,NE,56,0.0,0.0,62,0.00,,SKC,0.00,VWS V14.01,2014-01-01 16:04:00,
2014-01-01 08:09:00,26.8,13.6,30.22,NE,56,0.0,0.0,57,0.00,,SKC,0.00,VWS V14.01,2014-01-01 16:09:00,
2014-01-01 08:14:00,28.4,13.9,30.22,NE,56,0.0,0.0,54,0.00,,SKC,0.00,VWS V14.01,2014-01-01 16:14:00,
2014-01-01 08:19:00,29.8,11.1,30.22,NE,56,0.0,0.0,45,0.00,,SKC,0.00,VWS V14.01,2014-01-01 16:19:00,
2014-01-01 08:24:00,30.6,9.7,30.22,NE,56,0.0,0.0,41,0.00,,SKC,0.00,VWS V14.01,2014-01-01 16:24:00,
2014-01-01 08:29:00,31.8,10.8,30.22,NE,56,0.0,0.0,41,0.00,,SKC,0.00,VWS V14.01,2014-01-01 16:29:00,
2014-01-01 08:34:00,32.7,11.6,30.22,NE,56,0.0,0.0,41,0.00,,SKC,0.00,VWS V14.01,2014-01-01 16:34:00,
2014-01-01 08:39:00,33.8,12.1,30.22,NE,56,0.0,0.0,40,0.00,,SKC,0.00,VWS V14.01,2014-01-01 16:39:00,
2014-01-01 08:44:00,34.9,10.6,30.25,WNW,292,0.0,0.0,36,0.00,,SKC,0.00,VWS V14.01,2014-01-01 16:44:00,
2014-01-01 08:49:00,34.7,9.9,30.25,NW,304,2.2,3.6,35,0.00,,SKC,0.00,VWS V14.01,2014-01-01 16:49:00,
2014-01-01 08:54:00,34.3,8.9,30.25,WNW,288,3.6,3.6,34,0.00,,SKC,0.00,VWS V14.01,2014-01-01 16:54:00,
2014-01-01 08:59:00,33.8,9.1,30.25,WNW,293,2.7,3.1,35,0.00,,SKC,0.00,VWS V14.01,2014-01-01 16:59:00,
2014-01-01 09:04:00,33.8,8.4,30.25,WNW,294,0.0,0.0,34,0.00,,SKC,0.00,VWS V14.01,2014-01-01 17:04:00,
2014-01-01 09:09:00,34.0,8.6,30.25,WNW,294,0.0,0.0,34,0.00,,SKC,0.00,VWS V14.01,2014-01-01 17:09:00,
2014-01-01 09:14:00,34.5,9.7,30.25,WNW,284,0.0,0.0,35,0.00,,SKC,0.00,VWS V14.01,2014-01-01 17:14:00,
2014-01-01 09:19:00,34.5,9.7,30.25,WNW,290,0.0,0.0,35,0.00,,SKC,0.00,VWS V14.01,2014-01-01 17:19:00,
2014-01-01 09:24:00,34.7,9.2,30.25,WNW,290,0.0,0.0,34,0.00,,SKC,0.00,VWS V14.01,2014-01-01 17:24:00,
2014-01-01 09:29:00,35.1,8.9,30.25,WNW,290,0.0,0.0,33,0.00,,SKC,0.00,VWS V14.01,2014-01-01 17:29:00,
2014-01-01 09:34:00,35.4,9.2,30.25,WNW,289,0.0,0.0,33,0.00,,SKC,0.00,VWS V14.01,2014-01-01 17:34:00,
2014-01-01 09:39:00,35.6,8.7,30.25,WNW,288,0.0,0.0,32,0.00,,SKC,0.00,VWS V14.01,2014-01-01 17:39:00,
2014-01-01 09:44:00,36.0,9.7,30.25,WNW,287,0.0,0.0,33,0.00,,SKC,0.00,VWS V14.01,2014-01-01 17:44:00,
2014-01-01 09:49:00,36.3,10.0,30.25,West,280,0.0,0.0,33,0.00,,SKC,0.00,VWS V14.01,2014-01-01 17:49:00,
2014-01-01 09:54:00,36.3,10.0,30.25,West,280,0.0,0.0,33,0.00,,SKC,0.00,VWS V14.01,2014-01-01 17:54:00,
2014-01-01 09:59:00,36.0,9.0,30.25,West,280,0.0,0.0,32,0.00,,SKC,0.00,VWS V14.01,2014-01-01 17:59:00,
2014-01-01 10:04:00,36.3,10.0,30.25,West,279,0.0,0.0,33,0.00,,SKC,0.00,VWS V14.01,2014-01-01 18:04:00,
2014-01-01 10:09:00,36.9,10.5,30.25,West,279,0.0,0.0,33,0.00,,SKC,0.00,VWS V14.01,2014-01-01 18:09:00,
2014-01-01 10:14:00,36.9,10.5,30.25,West,279,0.0,0.0,33,0.00,,SKC,0.00,VWS V14.01,2014-01-01 18:14:00,
2014-01-01 10:19:00,37.4,10.2,30.25,WNW,293,0.0,0.0,32,0.00,,SKC,0.00,VWS V14.01,2014-01-01 18:19:00,
2014-01-01 10:24:00,37.9,10.0,30.25,WNW,295,0.0,0.0,31,0.00,,SKC,0.00,VWS V14.01,2014-01-01 18:24:00,
2014-01-01 10:29:00,38.1,10.2,30.25,WNW,287,0.0,0.0,31,0.00,,SKC,0.00,VWS V14.01,2014-01-01 18:29:00,
2014-01-01 10:34:00,38.7,10.6,30.25,WNW,288,0.0,0.0,31,0.00,,SKC,0.00,VWS V14.01,2014-01-01 18:34:00,
2014-01-01 10:39:00,38.8,10.8,30.25,WNW,283,0.0,0.0,31,0.00,,SKC,0.00,VWS V14.01,2014-01-01 18:39:00,
2014-01-01 10:44:00,39.4,10.5,30.25,WNW,293,2.2,4.0,30,0.00,,SKC,0.00,VWS V14.01,2014-01-01 18:44:00,
2014-01-01 10:49:00,39.9,11.0,30.25,WNW,282,0.0,0.0,30,0.00,,SKC,0.00,VWS V14.01,2014-01-01 18:49:00,
2014-01-01 10:54:00,40.3,11.3,30.25,West,281,0.0,0.0,30,0.00,,SKC,0.00,VWS V14.01,2014-01-01 18:54:00,
2014-01-01 10:59:00,40.5,10.7,30.22,West,276,0.0,0.0,29,0.00,,SKC,0.00,VWS V14.01,2014-01-01 18:59:00,
2014-01-01 11:04:00,41.2,11.4,30.22,West,275,0.0,0.0,29,0.00,,SKC,0.00,VWS V14.01,2014-01-01 19:04:00,
2014-01-01 11:09:00,42.3,11.5,30.22,West,275,0.0,0.0,28,0.00,,SKC,0.00,VWS V14.01,2014-01-01 19:09:00,
2014-01-01 11:14:00,42.8,12.0,30.22,West,274,0.0,0.0,28,0.00,,SKC,0.00,VWS V14.01,2014-01-01 19:14:00,
2014-01-01 11:19:00,43.3,12.4,30.22,West,275,0.0,0.0,28,0.00,,SKC,0.00,VWS V14.01,2014-01-01 19:19:00,
2014-01-01 11:24:00,44.2,13.2,30.22,WNW,289,0.0,0.0,28,0.00,,SKC,0.00,VWS V14.01,2014-01-01 19:24:00,
2014-01-01 11:29:00,45.3,13.3,30.22,West,264,0.0,0.0,27,0.00,,SKC,0.00,VWS V14.01,2014-01-01 19:29:00,
2014-01-01 11:34:00,45.7,13.6,30.22,WNW,302,0.0,2.7,27,0.00,,SKC,0.00,VWS V14.01,2014-01-01 19:34:00,
2014-01-01 11:39:00,46.0,12.2,30.22,WNW,297,0.0,0.0,25,0.00,,SKC,0.00,VWS V14.01,2014-01-01 19:39:00,
2014-01-01 11:44:00,46.8,11.9,30.22,WNW,297,0.0,0.0,24,0.00,,SKC,0.00,VWS V14.01,2014-01-01 19:44:00,
2014-01-01 11:49:00,47.3,12.4,30.22,WNW,297,0.0,0.0,24,0.00,,SKC,0.00,VWS V14.01,2014-01-01 19:49:00,
2014-01-01 11:54:00,48.0,11.0,30.22,NW,306,0.0,0.0,22,0.00,,SKC,0.00,VWS V14.01,2014-01-01 19:54:00,
2014-01-01 11:59:00,48.4,10.3,30.19,WNW,298,0.0,0.0,21,0.00,,SKC,0.00,VWS V14.01,2014-01-01 19:59:00,
2014-01-01 12:04:00,48.7,10.6,30.19,WNW,297,0.0,0.0,21,0.00,,SKC,0.00,VWS V14.01,2014-01-01 20:04:00,
2014-01-01 12:09:00,49.5,11.2,30.19,West,263,0.0,0.0,21,0.00,,SKC,0.00,VWS V14.01,2014-01-01 20:09:00,
2014-01-01 12:14:00,50.0,11.6,30.19,SW,226,0.0,0.0,21,0.00,,SKC,0.00,VWS V14.01,2014-01-01 20:14:00,
2014-01-01 12:19:00,50.0,11.6,30.19,West,277,0.0,0.0,21,0.00,,SKC,0.00,VWS V14.01,2014-01-01 20:19:00,
2014-01-01 12:24:00,49.8,11.5,30.19,SSW,199,0.0,0.0,21,0.00,,SKC,0.00,VWS V14.01,2014-01-01 20:24:00,
2014-01-01 12:29:00,50.2,11.8,30.19,South,177,0.0,0.0,21,0.00,,SKC,0.00,VWS V14.01,2014-01-01 20:29:00,
2014-01-01 12:34:00,51.6,13.0,30.19,SSE,160,0.0,0.0,21,0.00,,SKC,0.00,VWS V14.01,2014-01-01 20:34:00,
2014-01-01 12:39:00,51.8,13.1,30.19,West,272,0.0,0.0,21,0.00,,SKC,0.00,VWS V14.01,2014-01-01 20:39:00,
2014-01-01 12:44:00,52.2,13.4,30.19,SW,230,0.0,0.0,21,0.00,,SKC,0.00,VWS V14.01,2014-01-01 20:44:00,
2014-01-01 12:49:00,51.6,13.0,30.19,WSW,248,0.0,0.0,21,0.00,,SKC,0.00,VWS V14.01,2014-01-01 20:49:00,
2014-01-01 12:54:00,53.1,14.2,30.19,WNW,289,0.0,0.0,21,0.00,,SKC,0.00,VWS V14.01,2014-01-01 20:54:00,
2014-01-01 12:59:00,53.2,14.3,30.19,East,88,0.0,0.0,21,0.00,,SKC,0.00,VWS V14.01,2014-01-01 20:59:00,
2014-01-01 13:04:00,53.1,14.2,30.19,ESE,123,0.0,0.0,21,0.00,,SKC,0.00,VWS V14.01,2014-01-01 21:04:00,
2014-01-01 13:09:00,53.6,13.5,30.19,WSW,242,0.0,0.0,20,0.00,,SKC,0.00,VWS V14.01,2014-01-01 21:09:00,
2014-01-01 13:14:00,53.6,13.5,30.19,WNW,292,4.0,4.9,20,0.00,,SKC,0.00,VWS V14.01,2014-01-01 21:14:00,
2014-01-01 13:19:00,53.2,14.3,30.19,NW,308,3.6,4.0,21,0.00,,SKC,0.00,VWS V14.01,2014-01-01 21:19:00,
2014-01-01 13:24:00,53.4,14.5,30.19,NW,314,0.0,0.0,21,0.00,,SKC,0.00,VWS V14.01,2014-01-01 21:24:00,
2014-01-01 13:29:00,53.6,13.5,30.19,NW,314,0.0,0.0,20,0.00,,SKC,0.00,VWS V14.01,2014-01-01 21:29:00,
2014-01-01 13:34:00,53.6,13.5,30.19,NW,318,0.0,0.0,20,0.00,,SKC,0.00,VWS V14.01,2014-01-01 21:34:00,
2014-01-01 13:39:00,53.6,13.5,30.19,SW,225,0.0,0.0,20,0.00,,SKC,0.00,VWS V14.01,2014-01-01 21:39:00,
2014-01-01 13:44:00,53.4,14.5,30.19,West,275,5.4,5.4,21,0.00,,SKC,0.00,VWS V14.01,2014-01-01 21:44:00,
2014-01-01 13:49:00,53.4,14.5,30.19,NW,304,3.1,3.6,21,0.00,,SKC,0.00,VWS V14.01,2014-01-01 21:49:00,
2014-01-01 13:54:00,53.2,14.3,30.19,West,265,3.1,4.9,21,0.00,,SKC,0.00,VWS V14.01,2014-01-01 21:54:00,
2014-01-01 13:59:00,53.8,13.7,30.19,West,267,6.3,6.3,20,0.00,,SKC,0.00,VWS V14.01,2014-01-01 21:59:00,
2014-01-01 14:04:00,53.1,14.2,30.19,WNW,284,5.8,5.8,21,0.00,,SKC,0.00,VWS V14.01,2014-01-01 22:04:00,
2014-01-01 14:09:00,51.6,13.0,30.19,NNW,341,5.8,6.3,21,0.00,,SKC,0.00,VWS V14.01,2014-01-01 22:09:00,
2014-01-01 14:14:00,51.3,12.7,30.19,NW,306,4.0,4.9,21,0.00,,SKC,0.00,VWS V14.01,2014-01-01 22:14:00,
2014-01-01 14:19:00,51.1,12.5,30.19,NNW,329,0.0,0.0,21,0.00,,SKC,0.00,VWS V14.01,2014-01-01 22:19:00,
2014-01-01 14:24:00,50.7,12.2,30.19,NW,314,0.0,0.0,21,0.00,,SKC,0.00,VWS V14.01,2014-01-01 22:24:00,
2014-01-01 14:29:00,50.9,12.4,30.19,West,271,3.6,4.0,21,0.00,,SKC,0.00,VWS V14.01,2014-01-01 22:29:00,
2014-01-01 14:34:00,50.7,12.2,30.19,WNW,299,5.4,6.3,21,0.00,,SKC,0.00,VWS V14.01,2014-01-01 22:34:00,
2014-01-01 14:39:00,50.4,11.9,30.19,NW,312,5.4,5.4,21,0.00,,SKC,0.00,VWS V14.01,2014-01-01 22:39:00,
2014-01-01 14:44:00,50.2,11.8,30.19,NNW,340,3.1,3.1,21,0.00,,SKC,0.00,VWS V14.01,2014-01-01 22:44:00,
2014-01-01 14:49:00,50.2,9.5,30.19,NW,326,0.0,0.0,19,0.00,,SKC,0.00,VWS V14.01,2014-01-01 22:49:00,
2014-01-01 14:54:00,50.2,9.5,30.19,NW,307,3.6,3.6,19,0.00,,SKC,0.00,VWS V14.01,2014-01-01 22:54:00,
2014-01-01 14:59:00,50.2,11.8,30.19,NW,309,2.2,2.7,21,0.00,,SKC,0.00,VWS V14.01,2014-01-01 22:59:00,
2014-01-01 15:04:00,50.2,11.8,30.19,WNW,285,0.0,0.0,21,0.00,,SKC,0.00,VWS V14.01,2014-01-01 23:04:00,
2014-01-01 15:09:00,50.2,9.5,30.19,NW,320,0.0,0.0,19,0.00,,SKC,0.00,VWS V14.01,2014-01-01 23:09:00,
2014-01-01 15:14:00,50.9,12.4,30.19,WNW,296,0.0,0.0,21,0.00,,SKC,0.00,VWS V14.01,2014-01-01 23:14:00,
2014-01-01 15:19:00,51.1,12.5,30.19,West,275,4.9,4.9,21,0.00,,SKC,0.00,VWS V14.01,2014-01-01 23:19:00,
2014-01-01 15:24:00,50.7,12.2,30.19,West,276,0.0,0.0,21,0.00,,SKC,0.00,VWS V14.01,2014-01-01 23:24:00,
2014-01-01 15:29:00,50.4,11.9,30.19,West,272,0.0,0.0,21,0.00,,SKC,0.00,VWS V14.01,2014-01-01 23:29:00,
2014-01-01 15:34:00,50.2,9.5,30.19,WNW,284,3.6,3.6,19,0.00,,SKC,0.00,VWS V14.01,2014-01-01 23:34:00,
2014-01-01 15:39:00,50.2,11.8,30.19,WNW,288,3.6,3.6,21,0.00,,SKC,0.00,VWS V14.01,2014-01-01 23:39:00,
2014-01-01 15:44:00,50.4,11.9,30.22,West,281,3.6,4.5,21,0.00,,SKC,0.00,VWS V14.01,2014-01-01 23:44:00,
2014-01-01 15:49:00,50.2,11.8,30.22,West,272,2.7,3.6,21,0.00,,SKC,0.00,VWS V14.01,2014-01-01 23:49:00,
2014-01-01 15:54:00,49.3,11.0,30.22,WSW,257,0.0,0.0,21,0.00,,SKC,0.00,VWS V14.01,2014-01-01 23:54:00,
2014-01-01 15:59:00,48.7,10.6,30.22,WSW,250,0.0,0.0,21,0.00,,SKC,0.00,VWS V14.01,2014-01-01 23:59:00,
2014-01-01 16:04:00,48.6,10.4,30.22,WSW,252,2.2,3.1,21,0.00,,SKC,0.00,VWS V14.01,2014-01-02 00:04:00,
2014-01-01 16:09:00,48.0,11.0,30.22,WSW,248,0.0,0.0,22,0.00,,SKC,0.00,VWS V14.01,2014-01-02 00:09:00,
2014-01-01 16:14:00,47.1,10.2,30.22,WSW,248,0.0,0.0,22,0.00,,SKC,0.00,VWS V14.01,2014-01-02 00:14:00,
2014-01-01 16:19:00,45.5,8.9,30.22,SW,232,0.0,0.0,22,0.00,,SKC,0.00,VWS V14.01,2014-01-02 00:19:00,
2014-01-01 16:24:00,44.1,8.6,30.22,SW,227,0.0,0.0,23,0.00,,SKC,0.00,VWS V14.01,2014-01-02 00:24:00,
2014-01-01 16:29:00,42.8,7.6,30.22,SW,226,0.0,0.0,23,0.00,,SKC,0.00,VWS V14.01,2014-01-02 00:29:00,
2014-01-01 16:34:00,41.7,9.4,30.22,SW,226,0.0,0.0,26,0.00,,SKC,0.00,VWS V14.01,2014-01-02 00:34:00,
2014-01-01 16:39:00,41.0,8.8,30.22,SW,226,0.0,0.0,26,0.00,,SKC,0.00,VWS V14.01,2014-01-02 00:39:00,
2014-01-01 16:44:00,40.5,9.9,30.22,SW,226,0.0,0.0,28,0.00,,SKC,0.00,VWS V14.01,2014-01-02 00:44:00,
2014-01-01 16:49:00,39.7,9.3,30.22,WSW,237,0.0,0.0,28,0.00,,SKC,0.00,VWS V14.01,2014-01-02 00:49:00,
2014-01-01 16:54:00,39.2,8.9,30.22,WSW,237,0.0,0.0,28,0.00,,SKC,0.00,VWS V14.01,2014-01-02 00:54:00,
2014-01-01 16:59:00,38.7,9.2,30.22,WSW,237,0.0,0.0,29,0.00,,SKC,0.00,VWS V14.01,2014-01-02 00:59:00,
2014-01-01 17:04:00,37.6,8.2,30.22,WSW,237,0.0,0.0,29,0.00,,SKC,0.00,VWS V14.01,2014-01-02 01:04:00,
2014-01-01 17:09:00,37.4,8.1,30.22,WSW,237,0.0,0.0,29,0.00,,SKC,0.00,VWS V14.01,2014-01-02 01:09:00,
2014-01-01 17:14:00,36.9,8.3,30.22,WSW,237,0.0,0.0,30,0.00,,SKC,0.00,VWS V14.01,2014-01-02 01:14:00,
2014-01-01 17:19:00,36.3,7.9,30.22,WSW,244,0.0,0.0,30,0.00,,SKC,0.00,VWS V14.01,2014-01-02 01:19:00,
2014-01-01 17:24:00,35.6,7.2,30.22,WSW,244,0.0,0.0,30,0.00,,SKC,0.00,VWS V14.01,2014-01-02 01:24:00,
2014-01-01 17:29:00,35.1,7.5,30.22,WSW,244,0.0,0.0,31,0.00,,SKC,0.00,VWS V14.01,2014-01-02 01:29:00,
2014-01-01 17:34:00,35.1,8.2,30.22,WSW,244,0.0,0.0,32,0.00,,SKC,0.00,VWS V14.01,2014-01-02 01:34:00,
2014-01-01 17:39:00,35.1,8.2,30.22,WSW,244,0.0,0.0,32,0.00,,SKC,0.00,VWS V14.01,2014-01-02 01:39:00,
2014-01-01 17:44:00,35.2,8.4,30.22,WSW,244,0.0,0.0,32,0.00,,SKC,0.00,VWS V14.01,2014-01-02 01:44:00,
2014-01-01 17:49:00,34.9,8.0,30.22,WSW,244,0.0,0.0,32,0.00,,SKC,0.00,VWS V14.01,2014-01-02 01:49:00,
2014-01-01 17:54:00,34.3,7.6,30.22,WSW,244,0.0,0.0,32,0.00,,SKC,0.00,VWS V14.01,2014-01-02 01:54:00,
2014-01-01 17:59:00,34.3,8.2,30.22,WSW,244,0.0,0.0,33,0.00,,SKC,0.00,VWS V14.01,2014-01-02 01:59:00,
2014-01-01 18:04:00,34.2,8.1,30.22,SW,231,0.0,0.0,33,0.00,,SKC,0.00,VWS V14.01,2014-01-02 02:04:00,
2014-01-01 18:09:00,33.8,8.4,30.22,SSW,211,0.0,0.0,34,0.00,,SKC,0.00,VWS V14.01,2014-01-02 02:09:00,
2014-01-01 18:14:00,34.0,9.2,30.22,South,187,0.0,0.0,35,0.00,,SKC,0.00,VWS V14.01,2014-01-02 02:14:00,
2014-01-01 18:19:00,34.5,9.7,30.22,South,186,0.0,0.0,35,0.00,,SKC,0.00,VWS V14.01,2014-01-02 02:19:00,
2014-01-01 18:24:00,34.3,9.5,30.22,South,186,0.0,0.0,35,0.00,,SKC,0.00,VWS V14.01,2014-01-02 02:24:00,
2014-01-01 18:29:00,34.0,8.6,30.22,South,186,0.0,0.0,34,0.00,,SKC,0.00,VWS V14.01,2014-01-02 02:29:00,
2014-01-01 18:34:00,33.3,9.2,30.22,South,186,0.0,0.0,36,0.00,,SKC,0.00,VWS V14.01,2014-01-02 02:34:00,
2014-01-01 18:39:00,33.1,9.7,30.22,South,186,0.0,0.0,37,0.00,,SKC,0.00,VWS V14.01,2014-01-02 02:39:00,
2014-01-01 18:44:00,32.5,9.8,30.22,South,186,0.0,0.0,38,0.00,,SKC,0.00,VWS V14.01,2014-01-02 02:44:00,
2014-01-01 18:49:00,32.4,10.8,30.22,South,186,0.0,0.0,40,0.00,,SKC,0.00,VWS V14.01,2014-01-02 02:49:00,
2014-01-01 18:54:00,32.4,10.8,30.22,South,186,0.0,0.0,40,0.00,,SKC,0.00,VWS V14.01,2014-01-02 02:54:00,
2014-01-01 18:59:00,32.5,10.9,30.22,South,186,0.0,0.0,40,0.00,,SKC,0.00,VWS V14.01,2014-01-02 02:59:00,
2014-01-01 19:04:00,31.8,10.3,30.22,South,186,0.0,0.0,40,0.00,,SKC,0.00,VWS V14.01,2014-01-02 03:04:00,
2014-01-01 19:09:00,31.5,10.5,30.22,South,186,0.0,0.0,41,0.00,,SKC,0.00,VWS V14.01,2014-01-02 03:09:00,
2014-01-01 19:14:00,31.5,11.0,30.22,South,186,0.0,0.0,42,0.00,,SKC,0.00,VWS V14.01,2014-01-02 03:14:00,
2014-01-01 19:19:00,31.8,11.4,30.22,South,186,0.0,0.0,42,0.00,,SKC,0.00,VWS V14.01,2014-01-02 03:19:00,
2014-01-01 19:24:00,31.8,11.4,30.22,South,186,0.0,0.0,42,0.00,,SKC,0.00,VWS V14.01,2014-01-02 03:24:00,
2014-01-01 19:29:00,31.8,11.4,30.22,South,186,0.0,0.0,42,0.00,,SKC,0.00,VWS V14.01,2014-01-02 03:29:00,
2014-01-01 19:34:00,31.8,11.9,30.22,South,186,0.0,0.0,43,0.00,,SKC,0.00,VWS V14.01,2014-01-02 03:34:00,
2014-01-01 19:39:00,31.8,11.9,30.22,South,186,0.0,0.0,43,0.00,,SKC,0.00,VWS V14.01,2014-01-02 03:39:00,
2014-01-01 19:44:00,31.8,11.9,30.22,South,176,0.0,0.0,43,0.00,,SKC,0.00,VWS V14.01,2014-01-02 03:44:00,
2014-01-01 19:49:00,31.8,11.9,30.22,South,172,0.0,0.0,43,0.00,,SKC,0.00,VWS V14.01,2014-01-02 03:49:00,
2014-01-01 19:53:00,31.6,11.7,30.22,SSE,157,0.0,0.0,43,0.00,,SKC,0.00,VWS V14.01,2014-01-02 03:53:00,
2014-01-01 19:58:00,31.6,12.2,30.22,SE,132,0.0,0.0,44,0.00,,SKC,0.00,VWS V14.01,2014-01-02 03:58:00,
2014-01-01 20:03:00,32.0,12.6,30.22,SE,129,0.0,0.0,44,0.00,,SKC,0.00,VWS V14.01,2014-01-02 04:03:00,
2014-01-01 20:08:00,31.8,11.9,30.22,SE,130,0.0,0.0,43,0.00,,SKC,0.00,VWS V14.01,2014-01-02 04:08:00,
2014-01-01 20:13:00,31.6,11.7,30.22,SE,130,0.0,0.0,43,0.00,,SKC,0.00,VWS V14.01,2014-01-02 04:13:00,
2014-01-01 20:18:00,31.5,12.1,30.22,SE,130,0.0,0.0,44,0.00,,SKC,0.00,VWS V14.01,2014-01-02 04:18:00,
2014-01-01 20:23:00,31.1,11.8,30.22,SE,130,0.0,0.0,44,0.00,,SKC,0.00,VWS V14.01,2014-01-02 04:23:00,
2014-01-01 20:28:00,31.1,12.2,30.22,SE,130,0.0,0.0,45,0.00,,SKC,0.00,VWS V14.01,2014-01-02 04:28:00,
2014-01-01 20:33:00,31.1,12.2,30.22,SE,130,0.0,0.0,45,0.00,,SKC,0.00,VWS V14.01,2014-01-02 04:33:00,
2014-01-01 20:38:00,30.7,11.9,30.22,SE,130,0.0,0.0,45,0.00,,SKC,0.00,VWS V14.01,2014-01-02 04:38:00,
2014-01-01 20:43:00,30.4,11.6,30.22,SE,130,0.0,0.0,45,0.00,,SKC,0.00,VWS V14.01,2014-01-02 04:43:00,
2014-01-01 20:48:00,30.2,12.4,30.22,SE,130,0.0,0.0,47,0.00,,SKC,0.00,VWS V14.01,2014-01-02 04:48:00,
2014-01-01 20:53:00,30.0,11.8,30.22,SE,129,0.0,0.0,46,0.00,,SKC,0.00,VWS V14.01,2014-01-02 04:53:00,
2014-01-01 20:58:00,30.0,12.2,30.22,SE,129,0.0,0.0,47,0.00,,SKC,0.00,VWS V14.01,2014-01-02 04:58:00,
2014-01-01 21:01:00,30.0,12.2,30.22,SE,129,0.0,0.0,47,0.00,,SKC,0.00,VWS V14.01,2014-01-02 05:01:00,
2014-01-01 21:06:00,30.2,12.9,30.22,ESE,123,0.0,0.0,48,0.00,,SKC,0.00,VWS V14.01,2014-01-02 05:06:00,
2014-01-01 21:11:00,31.1,14.2,30.22,ESE,113,3.1,3.6,49,0.00,,SKC,0.00,VWS V14.01,2014-01-02 05:11:00,
2014-01-01 21:16:00,31.8,13.4,30.22,ESE,113,2.7,3.6,46,0.00,,SKC,0.00,VWS V14.01,2014-01-02 05:16:00,
2014-01-01 21:21:00,32.2,13.2,30.22,ESE,112,3.1,3.1,45,0.00,,SKC,0.00,VWS V14.01,2014-01-02 05:21:00,
2014-01-01 21:26:00,32.7,12.7,30.22,SE,127,3.6,4.0,43,0.00,,SKC,0.00,VWS V14.01,2014-01-02 05:26:00,
2014-01-01 21:31:00,32.7,12.7,30.22,ESE,123,2.7,4.0,43,0.00,,SKC,0.00,VWS V14.01,2014-01-02 05:31:00,
2014-01-01 21:36:00,32.5,12.5,30.22,ESE,117,2.7,3.1,43,0.00,,SKC,0.00,VWS V14.01,2014-01-02 05:36:00,
2014-01-01 21:41:00,32.5,12.5,30.22,ESE,117,3.6,3.6,43,0.00,,SKC,0.00,VWS V14.01,2014-01-02 05:41:00,
2014-01-01 21:46:00,32.4,12.4,30.22,SE,125,2.7,3.1,43,0.00,,SKC,0.00,VWS V14.01,2014-01-02 05:46:00,
2014-01-01 21:51:00,32.2,12.2,30.22,SE,128,3.1,3.1,43,0.00,,SKC,0.00,VWS V14.01,2014-01-02 05:51:00,
2014-01-01 21:56:00,32.2,12.2,30.22,ESE,119,2.7,3.1,43,0.00,,SKC,0.00,VWS V14.01,2014-01-02 05:56:00,
2014-01-01 22:01:00,31.8,11.9,30.22,SE,124,3.1,3.6,43,0.00,,SKC,0.00,VWS V14.01,2014-01-02 06:01:00,
2014-01-01 22:06:00,31.6,12.2,30.22,SE,125,2.7,3.6,44,0.00,,SKC,0.00,VWS V14.01,2014-01-02 06:06:00,
2014-01-01 22:11:00,31.5,12.1,30.22,SE,126,2.7,4.0,44,0.00,,SKC,0.00,VWS V14.01,2014-01-02 06:11:00,
2014-01-01 22:16:00,31.6,12.2,30.22,SE,127,2.7,2.7,44,0.00,,SKC,0.00,VWS V14.01,2014-01-02 06:16:00,
2014-01-01 22:21:00,31.6,11.7,30.22,ESE,119,0.0,0.0,43,0.00,,SKC,0.00,VWS V14.01,2014-01-02 06:21:00,
2014-01-01 22:26:00,31.3,11.4,30.22,ESE,119,0.0,0.0,43,0.00,,SKC,0.00,VWS V14.01,2014-01-02 06:26:00,
2014-01-01 22:31:00,30.9,11.1,30.22,ESE,119,0.0,0.0,43,0.00,,SKC,0.00,VWS V14.01,2014-01-02 06:31:00,
2014-01-01 22:36:00,30.7,11.4,30.22,ESE,118,0.0,0.0,44,0.00,,SKC,0.00,VWS V14.01,2014-01-02 06:36:00,
2014-01-01 22:41:00,30.7,11.4,30.22,ESE,118,0.0,0.0,44,0.00,,SKC,0.00,VWS V14.01,2014-01-02 06:41:00,
2014-01-01 22:46:00,30.4,11.1,30.22,SE,140,4.0,4.0,44,0.00,,SKC,0.00,VWS V14.01,2014-01-02 06:46:00,
2014-01-01 22:51:00,31.1,11.8,30.22,SE,134,3.1,3.1,44,0.00,,SKC,0.00,VWS V14.01,2014-01-02 06:51:00,
2014-01-01 22:56:00,30.9,11.6,30.22,SE,133,0.0,0.0,44,0.00,,SKC,0.00,VWS V14.01,2014-01-02 06:56:00,
2014-01-01 23:01:00,30.2,10.4,30.22,SE,133,0.0,0.0,43,0.00,,SKC,0.00,VWS V14.01,2014-01-02 07:01:00,
2014-01-01 23:06:00,29.3,10.6,30.22,SE,133,0.0,0.0,45,0.00,,SKC,0.00,VWS V14.01,2014-01-02 07:06:00,
2014-01-01 23:07:00,29.1,10.4,30.22,SE,133,0.0,0.0,45,0.00,,SKC,0.00,VWS V14.01,2014-01-02 07:07:00,
2014-01-01 23:12:00,28.6,10.9,30.22,SE,133,0.0,0.0,47,0.00,,SKC,0.00,VWS V14.01,2014-01-02 07:12:00,
2014-01-01 23:17:00,27.9,11.2,30.22,SE,133,0.0,0.0,49,0.00,,SKC,0.00,VWS V14.01,2014-01-02 07:17:00,
2014-01-01 23:22:00,27.9,12.1,30.22,SE,133,0.0,0.0,51,0.00,,SKC,0.00,VWS V14.01,2014-01-02 07:22:00,
2014-01-01 23:27:00,27.3,11.6,30.22,SE,132,0.0,0.0,51,0.00,,SKC,0.00,VWS V14.01,2014-01-02 07:27:00,
2014-01-01 23:32:00,27.0,11.7,30.22,SE,127,3.1,3.1,52,0.00,,SKC,0.00,VWS V14.01,2014-01-02 07:32:00,
2014-01-01 23:37:00,27.5,13.1,30.22,ESE,123,2.7,3.1,54,0.00,,SKC,0.00,VWS V14.01,2014-01-02 07:37:00,
2014-01-01 23:42:00,28.0,13.6,30.22,ESE,123,3.1,3.6,54,0.00,,SKC,0.00,VWS V14.01,2014-01-02 07:42:00,
2014-01-01 23:47:00,28.6,13.2,30.22,ESE,121,2.7,2.7,52,0.00,,SKC,0.00,VWS V14.01,2014-01-02 07:47:00,
2014-01-01 23:52:00,28.9,13.1,30.22,ESE,120,3.1,3.1,51,0.00,,SKC,0.00,VWS V14.01,2014-01-02 07:52:00,
2014-01-01 23:57:00,29.1,12.4,30.22,ESE,116,2.7,3.6,49,0.00,,SKC,0.00,VWS V14.01,2014-01-02 07:57:00,